Total_Precipitation_Accumulation
0.01 0.01 0.03 0.03 0.05 0.07 0.10 0.13 0.21 0.28 0.22 0.24 0.41 0.59 0.72 0.83 1.06 1.19 1.22 1.17 1.21 1.51 1.97 2.14 2.45 2.93 3.74 4.47 5.15 5.25 5.51 5.04 4.41 3.87 3.49 3.37 3.17 2.86 2.74 2.61 2.45 2.30 2.07 1.95
0.02 0.05 0.04 0.03 0.04 0.07 0.11 0.15 0.24 0.25 0.18 0.22 0.43 0.71 0.87 0.95 0.94 1.00 1.05 1.11 1.22 1.58 2.04 2.38 2.91 3.30 3.33 3.87 4.57 4.61 4.32 4.10 3.67 3.28 3.12 2.95 2.89 2.57 2.38 2.24 2.24 2.04 1.90 1.90
0.04 0.06 0.04 0.03 0.06 0.11 0.14 0.17 0.21 0.20 0.18 0.27 0.49 0.89 1.17 1.09 0.82 0.74 0.80 0.90 1.03 1.38 1.89 2.31 2.73 3.17 3.14 3.52 3.60 3.23 3.08 3.16 3.11 2.95 2.85 2.72 2.70 2.50 2.23 2.06 2.03 1.88 1.69 1.69
0.03 0.03 0.03 0.04 0.07 0.08 0.11 0.09 0.09 0.09 0.17 0.33 0.49 1.07 1.47 1.25 0.94 0.77 0.80 0.97 1.04 1.15 1.35 1.63 1.97 2.39 2.59 2.68 2.59 2.56 2.54 2.58 2.78 2.79 2.57 2.38 2.10 2.00 1.93 1.82 1.87 1.85 1.62 1.54
0.03 0.03 0.03 0.04 0.05 0.06 0.07 0.05 0.06 0.11 0.16 0.32 0.55 0.91 1.31 1.29 1.23 1.06 0.93 0.98 0.93 0.97 1.04 1.18 1.27 1.48 1.77 2.02 2.09 2.07 2.35 2.45 2.48 2.47 2.43 2.43 2.16 1.98 1.94 2.05 2.24 2.17 1.84 1.52
0.05 0.05 0.04 0.04 0.04 0.05 0.05 0.06 0.14 0.28 0.42 0.76 0.75 0.81 1.16 1.12 1.07 1.06 0.92 0.78 0.73 0.77 0.82 0.99 1.03 1.07 1.20 1.35 1.48 1.60 1.87 2.08 2.16 2.13 2.15 2.21 2.21 2.17 2.00 1.93 1.98 1.91 1.77 1.57
0.14 0.12 0.09 0.05 0.05 0.06 0.06 0.09 0.34 0.74 1.06 1.23 0.80 0.77 0.97 0.85 0.86 0.94 0.75 0.52 0.49 0.59 0.64 0.82 0.81 0.85 0.95 0.99 1.09 1.27 1.48 1.65 1.77 1.85 1.94 2.00 2.18 2.12 1.89 1.68 1.71 1.70 1.56 1.47
0.15 0.19 0.11 0.05 0.06 0.07 0.07 0.07 0.21 0.38 0.53 0.74 0.79 1.15 1.08 0.70 0.67 0.60 0.44 0.34 0.32 0.48 0.57 0.62 0.57 0.59 0.74 0.80 0.88 1.04 1.17 1.26 1.38 1.60 1.83 1.82 1.94 1.79 1.66 1.76 1.66 1.56 1.37 1.40
0.07 0.07 0.06 0.05 0.06 0.07 0.06 0.05 0.07 0.11 0.17 0.47 0.89 1.27 1.06 0.64 0.58 0.47 0.34 0.26 0.31 0.39 0.53 0.51 0.44 0.46 0.50 0.55 0.62 0.79 1.07 1.17 1.21 1.30 1.52 1.63 1.62 1.62 1.69 1.81 1.75 1.63 1.56 1.45
0.04 0.03 0.04 0.05 0.06 0.07 0.06 0.06 0.07 0.09 0.17 0.36 0.76 1.15 1.25 1.00 0.73 0.50 0.39 0.37 0.45 0.47 0.60 0.63 0.46 0.41 0.44 0.43 0.51 0.63 0.81 1.02 1.21 1.21 1.21 1.26 1.50 1.57 1.68 1.72 1.62 1.61 1.58 1.58
0.04 0.02 0.04 0.05 0.07 0.08 0.08 0.08 0.09 0.11 0.15 0.26 0.57 0.84 0.78 0.78 0.64 0.50 0.50 0.59 0.47 0.46 0.52 0.59 0.41 0.33 0.37 0.41 0.48 0.62 0.76 1.04 1.23 1.15 1.16 1.27 1.44 1.53 1.58 1.73 1.71 1.64 1.61 1.65
0.05 0.03 0.04 0.08 0.12 0.11 0.10 0.11 0.11 0.15 0.17 0.18 0.30 0.53 0.46 0.54 0.55 0.64 0.67 0.64 0.56 0.54 0.54 0.57 0.49 0.49 0.51 0.56 0.60 0.71 0.83 1.01 1.12 1.14 1.21 1.27 1.37 1.44 1.48 1.53 1.62 1.69 1.67 1.71
0.06 0.05 0.07 0.22 0.32 0.23 0.15 0.11 0.12 0.13 0.13 0.16 0.32 0.54 0.47 0.53 0.59 0.64 0.66 0.63 0.69 0.71 0.65 0.60 0.63 0.72 0.69 0.71 0.81 0.88 0.97 1.03 1.13 1.26 1.26 1.21 1.27 1.25 1.29 1.37 1.45 1.59 1.64 1.68
0.07 0.06 0.08 0.22 0.33 0.37 0.27 0.17 0.16 0.13 0.14 0.18 0.26 0.48 0.48 0.60 0.82 0.75 0.78 0.74 0.67 0.69 0.66 0.56 0.63 0.69 0.72 0.75 0.84 0.95 1.00 1.03 1.12 1.16 1.18 1.18 1.16 1.20 1.30 1.39 1.43 1.48 1.46 1.53
0.09 0.07 0.05 0.09 0.17 0.20 0.22 0.20 0.18 0.14 0.12 0.18 0.26 0.41 0.56 0.68 0.91 0.77 0.73 0.80 0.86 0.73 0.64 0.52 0.54 0.63 0.73 0.79 0.79 0.85 0.94 1.02 1.16 1.17 1.13 1.16 1.22 1.22 1.26 1.29 1.30 1.33 1.40 1.42
0.15 0.11 0.10 0.11 0.14 0.14 0.16 0.18 0.16 0.12 0.10 0.10 0.20 0.42 0.62 0.71 0.78 0.74 0.60 0.62 0.81 0.72 0.61 0.59 0.65 0.73 0.73 0.72 0.72 0.75 0.76 0.87 1.05 1.15 1.25 1.31 1.30 1.21 1.25 1.25 1.24 1.29 1.40 1.49
0.28 0.22 0.21 0.21 0.17 0.19 0.26 0.21 0.18 0.15 0.13 0.14 0.26 0.42 0.59 0.72 0.65 0.70 0.63 0.57 0.59 0.58 0.54 0.62 0.69 0.73 0.73 0.72 0.69 0.69 0.69 0.81 1.08 1.18 1.20 1.35 1.43 1.34 1.39 1.41 1.40 1.41 1.45 1.57
0.38 0.39 0.32 0.28 0.31 0.38 0.30 0.25 0.23 0.26 0.27 0.25 0.28 0.40 0.62 0.80 0.72 0.66 0.68 0.67 0.60 0.48 0.52 0.61 0.63 0.64 0.67 0.70 0.71 0.71 0.73 0.79 1.03 1.20 1.28 1.50 1.65 1.56 1.57 1.57 1.60 1.65 1.70 1.74
0.39 0.47 0.47 0.42 0.44 0.47 0.40 0.37 0.38 0.47 0.57 0.48 0.49 0.62 0.68 0.66 0.68 0.74 0.70 0.65 0.59 0.57 0.61 0.64 0.68 0.70 0.76 0.83 0.86 0.86 0.94 1.05 1.19 1.32 1.45 1.67 1.88 1.93 1.89 1.83 1.91 1.96 1.96 1.96
0.35 0.46 0.55 0.58 0.64 0.73 0.68 0.55 0.50 0.64 1.03 0.84 0.68 0.71 0.72 0.72 0.90 0.92 0.68 0.59 0.56 0.59 0.67 0.78 0.89 0.89 0.92 0.99 0.99 1.02 1.14 1.34 1.47 1.50 1.53 1.66 1.86 1.94 1.92 1.90 2.06 2.19 2.19 2.14
0.54 0.55 0.58 0.65 0.75 0.76 0.68 0.60 0.64 1.13 1.50 1.07 0.92 0.93 0.97 0.96 0.92 0.80 0.73 0.73 0.65 0.62 0.70 0.76 0.79 0.91 1.01 1.11 1.18 1.29 1.35 1.43 1.47 1.49 1.51 1.60 1.84 2.13 2.07 2.08 2.15 2.26 2.30 2.32
0.74 0.74 0.72 0.77 1.01 1.14 0.74 0.65 1.02 1.38 1.26 1.29 1.26 1.23 1.18 1.03 0.85 0.74 0.73 0.78 0.70 0.67 0.75 0.75 0.74 0.86 1.03 1.22 1.40 1.45 1.43 1.47 1.56 1.57 1.57 1.66 1.89 2.00 2.04 2.17 2.22 2.33 2.43 2.42
0.84 0.94 0.94 1.03 1.25 1.15 0.91 0.98 1.03 1.11 1.23 1.29 1.22 1.23 1.20 1.14 1.01 0.90 0.86 0.82 0.79 0.85 0.84 0.85 0.86 0.93 1.05 1.21 1.42 1.56 1.58 1.58 1.55 1.51 1.49 1.58 1.73 1.81 1.95 2.04 1.97 2.03 2.15 2.14
0.99 0.88 1.10 1.43 1.43 1.26 1.10 1.00 1.01 0.99 1.06 1.06 1.02 0.97 0.96 0.96 0.93 0.91 0.92 0.95 0.97 1.03 1.00 0.99 1.02 1.03 1.08 1.18 1.36 1.51 1.51 1.53 1.53 1.45 1.41 1.52 1.72 1.82 1.89 1.94 1.92 1.98 2.05 2.10
1.26 1.19 1.40 1.79 1.76 1.54 1.44 1.25 1.20 1.07 1.04 1.04 0.98 0.94 0.89 0.80 0.80 0.81 0.78 0.81 0.88 0.98 1.01 1.01 1.04 1.06 1.05 1.12 1.32 1.46 1.47 1.51 1.57 1.54 1.50 1.58 1.69 1.78 1.90 1.94 1.99 2.01 2.02 1.99
1.21 1.42 1.69 1.93 1.76 1.62 1.62 1.32 1.27 1.32 1.20 1.08 1.07 1.03 0.94 0.81 0.76 0.77 0.74 0.75 0.79 0.88 1.01 1.05 1.11 1.09 1.06 1.11 1.25 1.38 1.53 1.68 1.72 1.65 1.60 1.56 1.54 1.62 1.69 1.74 1.71 1.65 1.60 1.58